• In Belarus
  • List of Countries
  • For 7 days
  • Water Temperature
  • Weather Map
  • Weather Widgets
  • user-avatar
    Login

    Hourly Weather Trujillo

    Today, 20 September, Friday

    Time Temperature Precipitation Wind Pressure Humidity
    00:00 +19°C° 0.1 mm 1 mps 645 mmHg 89%
    01:00 +19°C° 0 mm 1 mps 645 mmHg 89%
    02:00 +19°C° 0 mm 1 mps 645 mmHg 88%
    03:00 +19°C° 0 mm 1 mps 645 mmHg 87%
    04:00 +19°C° 0 mm 1 mps 645 mmHg 87%
    05:00 +19°C° 0.1 mm 1 mps 646 mmHg 86%
    06:00 +20°C° 0.1 mm 1 mps 647 mmHg 86%
    07:00 +19°C° 0.1 mm 0 mps 647 mmHg 85%
    08:00 +22°C° 0.6 mm 1 mps 648 mmHg 84%
    09:00 +23°C° 0.6 mm 1 mps 648 mmHg 82%
    10:00 +24°C° 0.6 mm 1 mps 649 mmHg 80%
    11:00 +24°C° 1.3 mm 1 mps 648 mmHg 80%
    12:00 +25°C° 1.3 mm 1 mps 648 mmHg 80%
    13:00 +25°C° 1.3 mm 1 mps 648 mmHg 79%
    14:00 +24°C° 0.8 mm 1 mps 647 mmHg 83%
    15:00 +23°C° 0.8 mm 1 mps 647 mmHg 86%
    16:00 +21°C° 0.8 mm 0 mps 646 mmHg 90%
    17:00 +20°C° 0.6 mm 0 mps 646 mmHg 91%
    18:00 +19°C° 0.6 mm 0 mps 646 mmHg 92%
    19:00 +18°C° 0.6 mm 0 mps 647 mmHg 93%
    20:00 +18°C° 0.1 mm 0 mps 647 mmHg 93%
    21:00 +18°C° 0.1 mm 0 mps 647 mmHg 93%
    22:00 +18°C° 0.1 mm 0 mps 647 mmHg 93%
    23:00 +19°C° 0.2 mm 1 mps 647 mmHg 92%

    Tomorrow, 21 September, Saturday

    Time Temperature Precipitation Wind Pressure Humidity
    00:00 +19°C° 0.2 mm 1 mps 646 mmHg 92%
    01:00 +19°C° 0.2 mm 1 mps 646 mmHg 92%
    02:00 +19°C° 0.2 mm 1 mps 646 mmHg 91%
    03:00 +19°C° 0.2 mm 1 mps 646 mmHg 91%
    04:00 +19°C° 0.2 mm 1 mps 646 mmHg 90%
    05:00 +20°C° 0 mm 1 mps 646 mmHg 88%
    06:00 +18°C° 0 mm 0 mps 647 mmHg 86%
    07:00 +19°C° 0 mm 0 mps 648 mmHg 85%
    08:00 +22°C° 0.5 mm 1 mps 648 mmHg 82%
    09:00 +24°C° 0.5 mm 1 mps 649 mmHg 80%
    10:00 +25°C° 0.5 mm 1 mps 649 mmHg 78%
    11:00 +25°C° 1.8 mm 1 mps 648 mmHg 79%
    12:00 +25°C° 1.8 mm 1 mps 648 mmHg 80%
    13:00 +25°C° 1.8 mm 1 mps 647 mmHg 82%
    14:00 +25°C° 2.2 mm 1 mps 647 mmHg 84%
    15:00 +24°C° 2.2 mm 1 mps 646 mmHg 87%
    16:00 +24°C° 2.2 mm 1 mps 646 mmHg 89%
    17:00 +22°C° 1.5 mm 1 mps 646 mmHg 91%
    18:00 +21°C° 1.5 mm 1 mps 646 mmHg 93%
    19:00 +20°C° 1.5 mm 1 mps 646 mmHg 95%
    20:00 +20°C° 0.7 mm 1 mps 646 mmHg 94%
    21:00 +19°C° 0.7 mm 1 mps 646 mmHg 93%
    22:00 +19°C° 0.7 mm 1 mps 646 mmHg 92%
    23:00 +19°C° 0 mm 1 mps 646 mmHg 91%

    Day after tomorrow, 22 September, Sunday

    Time Temperature Precipitation Wind Pressure Humidity
    00:00 +19°C° 0 mm 1 mps 646 mmHg 90%
    01:00 +18°C° 0 mm 1 mps 645 mmHg 90%
    02:00 +18°C° 0 mm 1 mps 645 mmHg 89%
    03:00 +18°C° 0 mm 1 mps 645 mmHg 88%
    04:00 +18°C° 0 mm 1 mps 645 mmHg 87%
    05:00 +19°C° 0 mm 1 mps 646 mmHg 84%
    06:00 +20°C° 0 mm 1 mps 647 mmHg 80%
    07:00 +19°C° 0 mm 0 mps 648 mmHg 77%
    08:00 +23°C° 0 mm 1 mps 648 mmHg 72%
    09:00 +25°C° 0 mm 1 mps 648 mmHg 67%
    10:00 +26°C° 0 mm 1 mps 649 mmHg 62%
    11:00 +26°C° 0.9 mm 1 mps 648 mmHg 69%
    12:00 +25°C° 0.9 mm 1 mps 648 mmHg 76%
    13:00 +24°C° 0.9 mm 1 mps 647 mmHg 83%
    14:00 +24°C° 1.6 mm 1 mps 647 mmHg 85%
    15:00 +23°C° 1.6 mm 1 mps 646 mmHg 87%
    16:00 +23°C° 1.6 mm 1 mps 646 mmHg 89%
    17:00 +22°C° 0.7 mm 1 mps 646 mmHg 90%
    18:00 +21°C° 0.7 mm 1 mps 646 mmHg 92%
    19:00 +20°C° 0.7 mm 1 mps 646 mmHg 94%
    20:00 +20°C° 0.7 mm 1 mps 646 mmHg 93%
    21:00 +19°C° 0.7 mm 1 mps 646 mmHg 92%
    22:00 +19°C° 0.7 mm 1 mps 646 mmHg 91%
    23:00 +19°C° 0.2 mm 1 mps 646 mmHg 91%

    23 September, Monday

    Time Temperature Precipitation Wind Pressure Humidity
    00:00 +19°C° 0.2 mm 1 mps 646 mmHg 91%
    01:00 +19°C° 0.2 mm 1 mps 646 mmHg 90%
    02:00 +18°C° 0 mm 1 mps 646 mmHg 90%
    03:00 +18°C° 0 mm 1 mps 646 mmHg 89%
    04:00 +18°C° 0 mm 1 mps 646 mmHg 89%
    05:00 +19°C° 0.1 mm 1 mps 647 mmHg 86%
    06:00 +18°C° 0.1 mm 0 mps 647 mmHg 84%
    07:00 +19°C° 0.1 mm 0 mps 648 mmHg 82%
    08:00 +20°C° 0.8 mm 0 mps 649 mmHg 82%
    09:00 +23°C° 0.8 mm 1 mps 649 mmHg 82%
    10:00 +24°C° 0.8 mm 1 mps 650 mmHg 82%
    11:00 +24°C° 1.8 mm 1 mps 649 mmHg 85%
    12:00 +23°C° 1.8 mm 1 mps 648 mmHg 88%
    13:00 +23°C° 1.8 mm 1 mps 647 mmHg 91%
    14:00 +23°C° 1.2 mm 1 mps 647 mmHg 90%
    15:00 +21°C° 1.2 mm 0 mps 647 mmHg 90%
    16:00 +20°C° 1.2 mm 0 mps 646 mmHg 89%
    17:00 +20°C° 0.9 mm 0 mps 646 mmHg 91%
    18:00 +19°C° 0.9 mm 0 mps 646 mmHg 92%
    19:00 +18°C° 0.9 mm 0 mps 646 mmHg 93%
    20:00 +20°C° 0.5 mm 1 mps 646 mmHg 92%
    21:00 +19°C° 0.5 mm 1 mps 647 mmHg 92%
    22:00 +19°C° 0.5 mm 1 mps 647 mmHg 92%
    23:00 +19°C° 0.2 mm 1 mps 647 mmHg 91%

    24 September, Tuesday

    Time Temperature Precipitation Wind Pressure Humidity
    00:00 +19°C° 0.2 mm 1 mps 646 mmHg 91%
    01:00 +19°C° 0.2 mm 1 mps 646 mmHg 90%
    02:00 +19°C° 0.2 mm 1 mps 646 mmHg 90%
    03:00 +17°C° 0.2 mm 0 mps 646 mmHg 90%
    04:00 +17°C° 0.2 mm 0 mps 646 mmHg 90%
    05:00 +17°C° 0.5 mm 0 mps 647 mmHg 90%
    06:00 +17°C° 0.5 mm 0 mps 648 mmHg 90%
    07:00 +18°C° 0.5 mm 0 mps 648 mmHg 90%
    08:00 +19°C° 0.8 mm 0 mps 648 mmHg 89%
    09:00 +22°C° 0.8 mm 1 mps 649 mmHg 88%
    10:00 +23°C° 0.8 mm 1 mps 649 mmHg 86%
    11:00 +23°C° 1 mm 1 mps 649 mmHg 85%
    12:00 +24°C° 1 mm 1 mps 648 mmHg 84%
    13:00 +24°C° 1 mm 1 mps 648 mmHg 82%
    14:00 +24°C° 0.6 mm 1 mps 647 mmHg 83%
    15:00 +23°C° 0.6 mm 1 mps 647 mmHg 83%
    16:00 +23°C° 0.6 mm 1 mps 647 mmHg 84%
    17:00 +22°C° 0.3 mm 1 mps 647 mmHg 87%
    18:00 +21°C° 0.3 mm 1 mps 647 mmHg 90%
    19:00 +20°C° 0.3 mm 1 mps 647 mmHg 93%
    20:00 +20°C° 0.7 mm 1 mps 647 mmHg 92%
    21:00 +19°C° 0.7 mm 1 mps 647 mmHg 92%
    22:00 +19°C° 0.7 mm 1 mps 648 mmHg 91%
    23:00 +19°C° 0.2 mm 1 mps 647 mmHg 90%

    25 September, Wednesday

    Time Temperature Precipitation Wind Pressure Humidity
    00:00 +19°C° 0.2 mm 1 mps 647 mmHg 90%
    01:00 +19°C° 0.2 mm 1 mps 647 mmHg 89%
    02:00 +19°C° 0.5 mm 1 mps 647 mmHg 89%
    03:00 +19°C° 0.5 mm 1 mps 647 mmHg 88%
    04:00 +17°C° 0.5 mm 0 mps 646 mmHg 88%
    05:00 +18°C° 0.3 mm 0 mps 647 mmHg 87%
    06:00 +18°C° 0.3 mm 0 mps 648 mmHg 87%
    07:00 +19°C° 0.3 mm 0 mps 648 mmHg 86%
    08:00 +20°C° 0.4 mm 0 mps 649 mmHg 83%
    09:00 +23°C° 0.4 mm 1 mps 649 mmHg 80%
    10:00 +25°C° 0.4 mm 1 mps 649 mmHg 77%
    11:00 +24°C° 1.6 mm 1 mps 649 mmHg 81%
    12:00 +24°C° 1.6 mm 1 mps 648 mmHg 84%
    13:00 +24°C° 1.6 mm 1 mps 647 mmHg 88%
    14:00 +23°C° 2.4 mm 1 mps 647 mmHg 90%
    15:00 +23°C° 2.4 mm 1 mps 646 mmHg 92%
    16:00 +22°C° 2.4 mm 1 mps 646 mmHg 94%
    17:00 +21°C° 1 mm 1 mps 646 mmHg 95%
    18:00 +20°C° 1 mm 1 mps 646 mmHg 95%
    19:00 +19°C° 1 mm 1 mps 646 mmHg 96%
    20:00 +19°C° 0.5 mm 1 mps 647 mmHg 95%
    21:00 +19°C° 0.5 mm 1 mps 647 mmHg 95%
    22:00 +19°C° 0.5 mm 1 mps 647 mmHg 94%
    23:00 +18°C° 0.1 mm 1 mps 647 mmHg 93%
    Show more